Regional Weather Roundup
Issued by NWS Northern Indiana

Home | Current Version | Previous Version | Text Only | Print | Product List | Glossary Off
Versions: 1 2 3 4 5 6 7 8 9 10 11 12 13 14 15 16 17 18 19 20 21 22 23 24 25 26 27 28 29 30 31 32 33 34 35 36 37 38 39 40 41 42 43 44 45 46 47 48 49 50

000
ASUS43 KIWX 010310
RWRIWX

KIWX WEATHER ROUNDUP
NATIONAL WEATHER SERVICE NORTHERN INDIANA
1100 PM EDT TUE MAR 31 2015

NOTE: "FAIR" INDICATES FEW OR NO CLOUDS BELOW 12,000 FEET WITH NO
SIGNIFICANT WEATHER AND/OR OBSTRUCTIONS TO VISIBILITY.

* THESE STATIONS ARE NOT UNDER NWS QUALITY CONTROL. THEY ALSO MAY NOT
  REPORT WEATHER SUCH AS PRECIPITATION OR FOG.

INZ001>027-010400-
NORTHERN INDIANA

CITY           SKY/WX    TMP DP  RH WIND       PRES   REMARKS
GARY*          PTCLDY    46  30  53 SE7       29.97S
VALPARAISO     CLEAR     41  31  67 CALM      29.98S
MICHIGAN CITY* CLEAR     36  28  75 CALM      29.98S
LAPORTE*       PTCLDY    37  33  84 CALM      29.98F
KNOX*          CLEAR     34  23  64 SE5       29.98S WCI  30
SOUTH BEND     CLEAR     37  29  72 S3        29.98F
GOSHEN         CLEAR     35  30  82 S3        29.98S
MONTICELLO*    CLEAR     41  35  78 E5        29.99R
LOGANSPORT*    CLEAR     39  34  81 SE3       30.01R
ROCHESTER*     CLEAR     41  36  81 CALM      30.00R
WARSAW*        CLEAR     32  30  93 CALM      29.99S
ANGOLA*        CLEAR     34  28  80 CALM      29.97F
FORT WAYNE     PTCLDY    37  31  78 CALM      30.01R
HUNTINGTON*    CLEAR     36  29  75 CALM      30.00R
PERU/GRISSOM   CLEAR     40  33  73 SE2       29.99R
MARION*        CLEAR     39  32  75 CALM      30.01R

$$
INZ028>050-010400-
CENTRAL INDIANA

CITY           SKY/WX    TMP DP  RH WIND       PRES   REMARKS
LAFAYETTE      CLEAR     46  34  62 E6        29.99R
KOKOMO*          N/A     37  30  75 CALM      30.01R
MUNCIE*        CLEAR     41  33  73 CALM      30.00R
INDIANAPOLIS   CLEAR     47  33  58 NE5       29.99R

$$
MIZ043>046-050>051-056>058-064>065-071>073-077>080-010400-
SOUTHWEST LOWER MICHIGAN

CITY           SKY/WX    TMP DP  RH WIND       PRES   REMARKS
BATTLE CREEK   CLEAR     40  25  55 S3        29.96F
BENTON HARBOR  PTCLDY    38  31  76 SE6       29.96F
COLDWATER*     CLEAR     33  27  79 CALM      29.97F
HILLSDALE*     CLEAR     40  29  66 CALM      29.96F
HOLLAND        CLEAR     37  31  78 S7        29.95F
GRAND RAPIDS   PTCLDY    39  27  62 SW8       29.94F
KALAMAZOO      CLEAR     39  29  67 S3        29.96F
STURGIS*       CLEAR     36  30  80 CALM      29.96F
THREE RIVERS*  FAIR      34  29  80 CALM      29.97S

$$
OHZ001>008-015>018-024>025-010400-
NORTHWEST OHIO

CITY           SKY/WX    TMP DP  RH WIND       PRES   REMARKS
WAUSEON*       FAIR      36  34  93 SW5       30.00S
DEFIANCE       CLEAR     36  32  85 CALM      30.01R
FINDLAY        CLEAR     34  31  88 S6        30.00S WCI  29
TOLEDO EXPRESS PTCLDY    34  32  92 SW3       30.00S
TOLEDO METCALF CLEAR     36  31  82 S6        30.01S
LIMA           PTCLDY    35  30  82 SE7       30.00S WCI  29

$$
AND FOR LAKE MICHIGAN COASTAL AND OPEN LAKE BUOY OBSERVATIONS

STATION/POSITION TEMP    WIND        PRES    VSBY  WAVE
                 AIR SEA DIR/SP/G                  HT/PER
                 (F)     (DEG/KT/KT) (MB)    (MI)  (FT/S)
CALUMET HARBOR    47     170/  5/  6 1013.5S
MICHIGAN CITY     45     130/ 10/ 12   N/A
BURNS HARBOR      47     170/ 10/ 14 1015.2F
SAINT JOSEPH      42     130/  5/  9 1015.6S

$$
&&



USA.gov is the U.S. government's official web portal to all federal, state and local government web resources and services.